sat.trackr.live / text

‹ back to catalog

STARLINK-35225

NORAD 65626 · 2025-210E

PAYLOAD ACTIVE UNKNOWN

§ Identity

Operator
Country
US
Launch date
2025-09-18
Launch site
AFETR
Launch vehicle
Mass (kg)
RCS (m²)

Purposes: comms

External: N2YO · Heavens-Above · Gunter

§ Orbital elements

Epoch: 2026-09-19T23:54:52.362432Z

Period
93.85 min
Inclination
53.1580°
Eccentricity
0.0001276
Mean motion
15.34396272 rev/d
Perigee alt
461.8 km
Apogee alt
463.6 km
Semi-major
6,840.9 km
B*
5.7049e-4
RAAN
120.0593°
Arg perigee
97.1003°
Mean anomaly
263.0145°
Rev number
5,754

§ Raw data

STARLINK-352251 65626U 25210E   26262.99643938  .00018945  00000+0  57049-3 0  99982 65626  53.1580 120.0593 0001276  97.1003 263.0145 15.34396272 57549

JSON: /api/v1/satellites/65626 · /tle

For live sub-satellite position, see the globe view (requires WebGL).

§ Visibility from observer

Set your observer location to see the next 7 days of passes ≥ 10°. The values pass through the URL so the page stays shareable.

No JS? Fill the form by hand. The geolocation button needs JavaScript.